Weather History for KCRG - January, 2014

Change the Weather History Date:

Wednesday, January 8, 2014

  Actual Average Record
Temperature  
Mean Temperature 42 °F -  
Max Temperature 53 °F 63 °F 80 °F (2005)
Min Temperature 30 °F 43 °F 28 °F (2002)
Degree Days  
Heating Degree Days 24    
Moisture  
Dew Point 36 °F    
Average Humidity 73    
Maximum Humidity 86    
Minimum Humidity 50    
Precipitation  
Precipitation 0.00 in - - ()
Sea Level Pressure  
Sea Level Pressure 30.43 in    
Wind  
Wind Speed 10 mph (North)    
Max Wind Speed 14 mph    
Max Gust Speed 23 mph    
Visibility 10 miles    
Events      
Averages and records for this station are not official NWS values.
T = Trace of Precipitation, MM = Missing Value Source: NWS Daily Summary

Daily Weather History Graph

Daily Weather History Graph

Search for Another Location

Airport or City:

Trip Planner

Search our weather history database for the weather conditions in past years. The results will help you decide how hot, cold, wet, or windy it might be!

Date:

Astronomy

Jan. 08, 2014 Rise Set
Actual Time 7:23 AM EST 5:42 PM EST
Civil Twilight 6:57 AM EST 6:08 PM EST
Nautical Twilight 6:27 AM EST 6:37 PM EST
Astronomical Twilight 5:58 AM EST 7:07 PM EST
Moon 12:20 PM EST (1/8) 12:42 AM EST (1/8)
Length of Visible Light 11h 10m
Length of Day
10h 18m
First Quarter, 56% of the Moon is Illuminated
Jan 8
First Quarter
Jan 15
Full
Jan 24
Last Quarter
Jan 30
New
Feb 6
First Quarter

Hourly Weather History & Observations

Time (EST) Temp. Windchill Dew Point Humidity Pressure Visibility Wind Dir Wind Speed Gust Speed Precip Events Conditions
12:53 AM 30.9 °F 21.7 °F 15.1 °F 52% 30.49 in 10.0 mi NNW 11.5 mph - N/A   Clear
1:53 AM 32.0 °F 23.6 °F 15.1 °F 50% 30.49 in 10.0 mi North 10.4 mph - N/A   Clear
2:53 AM 32.0 °F 24.2 °F 16.0 °F 52% 30.48 in 10.0 mi North 9.2 mph - N/A   Clear
3:53 AM 32.0 °F 24.8 °F 18.0 °F 56% 30.45 in 10.0 mi North 8.1 mph - N/A   Clear
4:53 AM 33.1 °F 25.5 °F 21.0 °F 61% 30.45 in 10.0 mi North 9.2 mph - N/A   Clear
5:53 AM 33.1 °F 26.9 °F 21.9 °F 64% 30.45 in 10.0 mi North 6.9 mph - N/A   Clear
6:53 AM 34.0 °F 27.2 °F 24.1 °F 67% 30.45 in 10.0 mi North 8.1 mph - N/A   Clear
7:53 AM 35.1 °F 30.1 °F 26.1 °F 70% 30.46 in 10.0 mi North 5.8 mph - N/A   Clear
8:53 AM 36.0 °F 29.6 °F 28.0 °F 73% 30.49 in 10.0 mi North 8.1 mph - N/A   Clear
9:53 AM 39.9 °F 35.1 °F 30.9 °F 70% 30.50 in 10.0 mi North 6.9 mph - N/A   Clear
10:53 AM 45.0 °F 40.1 °F 36.0 °F 71% 30.48 in 10.0 mi NNE 9.2 mph - N/A   Clear
11:53 AM 48.0 °F - 39.0 °F 71% 30.45 in 10.0 mi North 10.4 mph - N/A   Clear
12:53 PM 51.1 °F - 42.1 °F 71% 30.41 in 10.0 mi NNE 11.5 mph - N/A   Partly Cloudy
1:53 PM 51.1 °F - 43.0 °F 74% 30.39 in 10.0 mi NNE 12.7 mph - N/A   Scattered Clouds
2:53 PM 53.1 °F - 44.1 °F 71% 30.38 in 10.0 mi NNE 11.5 mph - N/A   Mostly Cloudy
3:53 PM 50.0 °F - 43.0 °F 77% 30.40 in 10.0 mi North 13.8 mph 20.7 mph N/A   Overcast
4:42 PM 50.0 °F - 43.0 °F 77% 30.40 in 10.0 mi North 10.4 mph 23.0 mph N/A   Overcast
4:53 PM 50.0 °F - 43.0 °F 77% 30.40 in 10.0 mi North 10.4 mph - N/A   Overcast
5:06 PM 48.9 °F - 43.0 °F 80% 30.40 in 10.0 mi North 12.7 mph - N/A   Overcast
5:53 PM 48.9 °F - 44.1 °F 83% 30.40 in 10.0 mi North 12.7 mph - N/A   Overcast
6:53 PM 48.0 °F - 42.1 °F 80% 30.40 in 10.0 mi North 11.5 mph - N/A   Overcast
7:31 PM 48.0 °F - 42.1 °F 80% 30.40 in 10.0 mi North 10.4 mph - N/A   Overcast
7:53 PM 48.0 °F - 42.1 °F 80% 30.41 in 10.0 mi North 10.4 mph - N/A   Overcast
8:53 PM 48.9 °F - 43.0 °F 80% 30.41 in 10.0 mi North 8.1 mph - N/A   Overcast
9:49 PM 50.0 °F - 44.6 °F 82% 30.41 in 10.0 mi NNW 9.2 mph - N/A   Overcast
9:53 PM 50.0 °F - 45.0 °F 83% 30.41 in 10.0 mi North 9.2 mph - N/A   Overcast
10:02 PM 50.0 °F - 45.0 °F 83% 30.41 in 10.0 mi NNW 8.1 mph - N/A   Overcast
10:53 PM 51.1 °F - 46.9 °F 86% 30.40 in 10.0 mi North 10.4 mph - N/A   Overcast
11:53 PM 52.0 °F - 46.9 °F 83% 30.38 in 10.0 mi NNE 11.5 mph - N/A   Overcast